CDT,Max TemperatureF,Mean TemperatureF,Min TemperatureF,Max Dew PointF,MeanDew PointF,Min DewpointF,Max Humidity, Mean Humidity, Min Humidity, Max Sea Level PressureIn, Mean Sea Level PressureIn, Min Sea Level PressureIn, Max VisibilityMiles, Mean VisibilityMiles, Min VisibilityMiles, Max Wind SpeedMPH, Mean Wind SpeedMPH, Max Gust SpeedMPH,PrecipitationIn, CloudCover, Events, WindDirDegrees
2013-3-1,39,29,18,30,25,17,96,84,65,30.41,30.34,30.27,10,8,5,12,4,,0.00,4,,350
2013-3-2,51,34,16,37,28,15,96,81,59,30.40,30.25,30.07,10,9,6,7,2,,0.00,2,,222
2013-3-3,56,44,32,37,33,29,96,72,47,30.05,29.79,29.61,10,10,6,8,4,,0.00,0,,208
2013-3-4,47,38,29,36,29,13,96,72,40,30.22,29.88,29.64,10,9,4,25,12,34,0.01,3,Rain,342
2013-3-5,44,32,20,19,16,13,92,57,32,30.44,30.37,30.26,10,10,10,24,12,34,0.00,0,,325
2013-3-6,48,33,17,27,22,14,88,69,44,30.43,30.26,30.08,10,10,10,22,8,29,0.00,0,,124
2013-3-7,58,41,24,32,27,22,89,65,34,30.08,30.03,29.98,10,10,9,10,8,17,0.00,0,,98
2013-3-8,66,48,30,53,41,28,92,76,52,30.02,29.88,29.71,10,10,9,18,9,25,T,3,,133
2013-3-9,70,52,33,54,50,36,94,78,30,29.78,29.59,29.44,10,10,9,31,21,46,0.01,5,Rain,203
2013-3-10,36,28,19,22,17,14,78,64,52,30.15,29.98,29.78,10,5,1,37,26,48,0.06,6,Snow,341
2013-3-11,58,37,16,32,20,13,84,58,26,30.11,30.03,29.92,10,10,10,13,7,,0.00,2,,296
2013-3-12,51,36,21,33,20,9,83,52,20,30.40,30.27,30.08,10,10,10,24,11,31,0.00,2,,328
2013-3-13,69,45,20,36,24,14,84,54,24,30.40,30.29,30.16,10,10,5,20,5,28,0.00,2,,204
2013-3-14,78,57,35,36,31,26,83,42,16,30.18,30.11,30.04,10,10,7,16,7,17,0.00,0,,278
2013-3-15,86,65,43,43,30,23,62,36,10,30.02,29.81,29.69,10,10,10,17,10,23,0.00,0,,278
2013-3-16,54,42,30,41,29,24,96,67,45,30.11,30.01,29.79,10,10,7,22,13,29,T,5,,51
2013-3-17,53,41,29,36,31,28,100,86,48,30.06,29.88,29.62,10,6,0,18,8,29,T,6,Fog,125
2013-3-18,56,40,24,34,22,13,92,53,20,30.05,29.94,29.75,10,10,8,18,9,33,0.00,2,,335
2013-3-19,53,39,25,24,19,13,78,50,21,30.37,30.19,30.07,10,10,10,14,6,18,0.00,2,,57
2013-3-20,49,32,14,22,16,10,88,54,26,30.46,30.27,29.94,10,10,9,14,6,21,0.00,0,,137
2013-3-21,53,41,28,26,21,17,73,48,31,29.93,29.80,29.68,10,10,10,21,15,29,T,2,,102
2013-3-22,55,40,25,36,30,23,100,82,29,29.99,29.90,29.83,10,6,0,18,5,24,0.01,6,Fog-Snow,139
2013-3-23,34,30,25,30,27,23,100,91,85,30.19,30.01,29.90,8,2,0,25,14,33,0.05,8,Fog-Snow,39
2013-3-24,33,24,15,22,17,11,88,73,59,30.31,30.23,30.12,10,9,2,20,16,25,T,2,Snow,326
2013-3-25,34,25,15,18,14,10,81,68,51,30.44,30.40,30.33,10,10,10,18,12,28,0.00,2,,310
2013-3-26,55,33,11,25,17,9,88,60,28,30.44,30.29,30.10,10,10,8,18,6,85,0.00,0,,175
2013-3-27,58,44,30,29,26,23,82,56,32,30.20,30.12,30.06,10,10,10,12,6,23,0.00,1,,78
2013-3-28,67,46,24,33,29,23,92,59,25,30.22,30.16,30.08,10,9,5,12,4,20,0.00,0,,116
2013-3-29,73,52,30,54,42,28,89,66,33,30.17,30.07,29.94,10,9,2,18,6,28,0.31,2,Rain-Thunderstorm,137
2013-3-30,70,58,45,52,45,37,97,72,31,30.10,29.98,29.91,10,9,2,32,10,47,0.16,3,Rain-Thunderstorm,335
2013-3-31,68,53,37,45,37,31,96,61,26,30.11,30.02,29.89,10,10,10,14,8,23,0.00,0,,276